Погода в Годунове

Россия / Владимирская область     56°29′02″N   39°02′10″E
темп.,
°C
ветер,
м/с
пор.,
м/с
влажн.,
%
обл.,
%
осадки,
мм/ч
давл.,
гПа
погр.,
м
19 апреля, пн
пн1900:00+6всв61183100 0.0 1024547
03:00+5всв5989100 0.2 1025501
06:00+3всв61086100 0.0 1025478
09:00+5всв61072100 0.0 1026639
12:00+7всв7862100 0.0 10261101
15:00+7в795899 0.0 10261059
18:00+7в6958100 0.0 10251338
21:00+5в6115574 0.0 1026835
20 апреля, вт
вт2000:00+3всв61260100 0.0 1026628
03:00+2в61262100 0.0 1025574
06:00+1в61263100 0.0 1025555
09:00+3в71162100 0.0 1024618
12:00+4в71069100 0.0 1023998
15:00+3в61295100 0.8 1022764
18:00+2в61596100 1.1 1020751
21:00+3в71597100 2.0 1017954
21 апреля, ср
ср2100:00+4в81675100 0.8 1013971
03:00+1в91997100 6.2 1008911
06:00+2в91897100 2.1 1005876
09:00+4вюв81797100 2.4 1002677
12:00+6вюв71595100 1.1 1000855
15:00+4ю71192100 3.1 1000881
18:00+3юз71297100 0.4 1003781
21:00+3юз71287100 0.6 10081073
22 апреля, чт
чт2200:00+3ююз51186100 0.0 1011590
03:00+3ююз41096100 0.1 1012373
06:00+3ю41095100 0.1 1014670
09:00+5ююз578361 0.1 1015632
12:00+8ююз5768100 0.1 10161319
15:00+10ююз586399 0.3 10161476
18:00+10ю367333 0.3 1016699
21:00+5ю389071 0.4 1018151
23 апреля, пт
пт2300:00+5ююв499412 0.0 1017173
03:00+5ююв411945 0.0 1017228
06:00+4ююв4109628 0.0 1017200
09:00+11ю6117447 0.0 1017533
12:00+15ю71057100 0.0 10161583
15:00+15ю7105594 0.3 10141722
18:00+14ю71365100 0.2 10141152
21:00+10ююв6147794 0.4 1014454